Location: Yecla
(38.6122°N, 1.1101°W)
Time: 08:44:44
(UTC+02:00)

ISS - Pass Details

Date: 02 April 2019
Orbit: 408 x 410 km, 51.6° (Epoch: 24 April)

Event Time Altitude Azimuth Distance (km) Brightness Sun altitude
Rises 22:31:25 0° 317° (NW) 2,336 1.2 -23.6°
Reaches altitude 10° 22:33:49 10° 333° (NNW) 1,472 -0.3 -24.0°
Enters shadow 22:35:23 19° 358° (N) 1,048 -1.4 -24.3°
